Regional Weather Roundup
Issued by NWS

Home | Current Version | Previous Version | Text Only | Print | Product List | Glossary On
Versions: 1 2 3 4 5 6 7 8 9 10 11 12 13 14 15 16 17 18 19 20 21 22 23 24 25 26 27 28 29 30 31 32 33 34 35 36 37 38 39 40 41 42 43 44 45 46 47 48 49
000
ASUS46 KSEW 211410
RWRWA

WASHINGTON REGIONAL WEATHER ROUNDUP
NATIONAL WEATHER SERVICE SEATTLE WA
700 AM PDT SUN SEP 21 2014

NOTE:"FAIR" INDICATES FEW OR NO CLOUDS BELOW 12,000 FEET WITH NO
SIGNIFICANT WEATHER AND/OR OBSTRUCTIONS TO VISIBILITY.

WAZ505-507>509-211500-
SEATTLE, TACOMA, EVERETT, AND VICINITY

CITY           SKY/WX    TMP DP  RH WIND       PRES   REMARKS
EVERETT        CLEAR     60  50  69 CALM      29.87S
BOEING FIELD   PTCLDY    58  53  84 SE3       29.86S
RENTON         CLEAR     55  55 100 E3        29.86R
SEATAC AIRPORT PTCLDY    55  53  93 CALM      29.87S
JBLM-MCCHORD   CLEAR     48  48  99 S1        29.88R
PUYALLUP       NOT AVBL
JBLM-FT LEWIS  CLEAR     49  48  99 SE7       29.87R
TACOMA NARROWS CLEAR     55  53  93 CALM      29.87R
$$

WAZ001-503-506-510-514-515-211500-
NORTH INTERIOR

CITY           SKY/WX    TMP DP  RH WIND       PRES   REMARKS
BELLINGHAM     CLEAR     48  46  93 CALM      29.86S
FRIDAY HARBOR  CLEAR     50  50 100 CALM      29.87S
EASTSOUND      FOG       54  54 100 CALM      29.85R VSB 1
PORT ANGELES     N/A     51  48  89 CALM      29.87S
NAS WHIDBEY    PTCLDY    51  49  92 SE3       29.87R
BURLINGTON     CLEAR     61  52  72 NE8       29.87S
$$

WAZ020-022-039-040-504-511-512-211500-
SOUTHWEST INTERIOR

CITY           SKY/WX    TMP DP  RH WIND       PRES   REMARKS
SHELTON        CLEAR     53  50  89 CALM      29.85S
OLYMPIA        CLEAR     50  48  93 S3        29.88R
CHEHALIS       PTSUNNY   52  52 100 CALM      29.88S FOG
KELSO          PTCLDY    57  54  88 N3        29.93R
VANCOUVER      CLEAR     57  54  89 CALM      29.86R
SCAPPOOSE, OR  CLEAR     55  51  86 CALM      29.86R
PORTLAND, OR   PTCLDY    62  58  86 W3        29.87R
$$

WAZ021-516-517-211500-
WASHINGTON COAST

CITY           SKY/WX    TMP DP  RH WIND       PRES   REMARKS
FORKS          CLOUDY    59  58  96 VRB6      29.86R
HOQUIAM        CLOUDY    58  56  93 SE6       29.90R
ASTORIA, OR    CLOUDY    57  55  93 SW5       29.89R
$$

WAZ019-023-024-040-518-519-211500-
CASCADE MOUNTAINS AND COLUMBIA GORGE

CITY           SKY/WX    TMP DP  RH WIND       PRES   REMARKS
STAMPEDE PASS  NOT AVBL
TROUTDALE, OR  CLEAR     65  52  62 SW3       29.86R
THE DALLES, OR CLEAR     54  46  74 CALM      29.94R
$$

WAZ026-027-041>044-520-521-211500-
EAST SLOPES

CITY           SKY/WX    TMP DP  RH WIND       PRES   REMARKS
OMAK           CLEAR     56  38  50 N10       30.02S
WENATCHEE      CLEAR     59  44  57 W7        30.00S
ELLENSBURG     CLEAR     48  43  82 N3        30.01R
YAKIMA         CLEAR     50  45  83 W7        29.98R
$$

WAZ028-034-035-211500-
COLUMBIA BASIN

CITY           SKY/WX    TMP DP  RH WIND       PRES   REMARKS
EPHRATA        CLEAR     64  37  36 N7        29.97R
MOSES LAKE     CLEAR     51  41  68 N6        29.98R
PASCO          CLEAR     53  50  89 CALM      29.95R
HERMISTON, OR  CLEAR     52  45  77 S5        29.94S
$$

WAZ036>038-211500-
NORTHEAST WASHINGTON

CITY           SKY/WX    TMP DP  RH WIND       PRES   REMARKS
SPOKANE GEIGER PTCLDY    58  45  62 NE8       30.02S
SPOKANE FELTS  CLEAR     50  46  86 CALM      30.02S
FAIRCHILD AFB  CLEAR     53  43  69 NE6       30.02S
COEURDALENE,ID CLEAR     59  45  58 NE16      30.04S
DEER PARK      CLEAR     59  44  57 N10       30.03R
$$

WAZ029>033-211500-
SOUTHEAST WASHINGTON

CITY           SKY/WX    TMP DP  RH WIND       PRES   REMARKS
PULLMAN        CLEAR     58  38  47 E8        30.02S
LEWISTON, ID   CLEAR     57  40  52 CALM      29.99R
WALLA WALLA    CLEAR     57  44  62 E3        29.96S
PENDLETON, OR  CLEAR     53  43  68 SE8       29.97R
$$



USA.gov is the U.S. government's official web portal to all federal, state and local government web resources and services.